Starlink 4515

operational
NORAD ID: 53397 Int'l Des: 2022-097 Owner: SPXS Country: US Constellation: starlink
LEOCIRCULAR

About Starlink 4515

Description loading...

Live Position

Loading 3D Globe...

Upcoming Passes

Altitude History

Altitude vs Time

uPlot chart will show altitude changes over time

Two-Line Element Set

1 53397U 22097K 25301.48248717 .00000864 00000-0 72359-4 0 9997
2 53397 53.2183 357.6219 0001332 84.1170 275.9974 15.08836555178559
Epoch: Oct 28, 2025 • Age: 24 hours

Current Status

Altitude 542.8 km
Velocity 7.60 km/s
Sub-Earth Point 40.72°N, 84.51°W
Launch Date Aug 10, 2022
Age 3.2 years
Type internet

Technical Details

Classification Payload
Mass 297.00 kg
Dry Mass 275.00 kg
Total Mass 297.00 kg
Length 0.20 m
Diameter 2.80 m
Span 9.00 m
Shape Box + pan
Manufacturer SPXS
Bus Type Starlink
Phase Status In Orbit
Owner/State SPXS/US

Large Constellations

Loading constellations...